Language: 


Des rapports , des résumés tant et plus, au choix de chacun....


Données statistiques de la station
Quotidien Rapport Octobre 5, 2017 Unités:  Métrique    Anglais   les deux
« Précédent Jour
Suivant Jour »
Quotidien Hebdomadaire Mensuel Annuel Actuel
  Haut: Bas: Moyen:
Température: 17.1 °C 0.0 °C 14.1 °C
Pt de rosée: 16.0 °C 7.0 °C 11.4 °C
Humidité: 98 % 0 % 83 %
Vitesse du vent: 39.3 km/h 0.0 km/h 14.3 km/h
Rafales: 49.2 km/h - -
Vent:- - West
Pression: 1018.8 hPa 0.0 hPa -
Précipitation: 1.3 mm    
Historical Graphs
 
 
Données statistiques pour Octobre 5, 2017
Heure Température Point de rosée Pression Vent Vitesse du vent Refales Humidité Pluie (taux horaire)
00:03 13.8 °C 11.0 °C 1018.2 hPa WSW 6.4 km/h 12.6 km/h 84 % 0.0 mm
00:08 13.8 °C 11.0 °C 1018.2 hPa SW 9.3 km/h 11.9 km/h 84 % 0.0 mm
00:13 13.8 °C 11.0 °C 1018.2 hPa SSW 7.6 km/h 11.6 km/h 84 % 0.0 mm
00:18 13.8 °C 12.0 °C 1018.2 hPa WSW 9.7 km/h 11.6 km/h 85 % 0.0 mm
00:23 13.8 °C 12.0 °C 1018.2 hPa WSW 7.6 km/h 9.7 km/h 85 % 0.0 mm
00:28 13.8 °C 12.0 °C 1018.2 hPa SW 6.1 km/h 12.2 km/h 85 % 0.0 mm
00:33 13.8 °C 12.0 °C 1018.2 hPa WSW 13.7 km/h 16.9 km/h 85 % 0.0 mm
00:38 14.0 °C 12.0 °C 1018.2 hPa WSW 14.0 km/h 20.6 km/h 84 % 0.0 mm
00:43 14.0 °C 12.0 °C 1018.2 hPa SW 10.1 km/h 23.8 km/h 84 % 0.0 mm
00:48 14.0 °C 12.0 °C 1016.8 hPa WSW 13.7 km/h 23.8 km/h 84 % 0.0 mm
00:53 14.0 °C 11.0 °C 1016.8 hPa WSW 13.7 km/h 20.9 km/h 83 % 0.0 mm
00:58 14.0 °C 11.0 °C 1016.8 hPa WSW 21.2 km/h 21.2 km/h 83 % 0.0 mm
01:03 14.0 °C 11.0 °C 1016.8 hPa WSW 21.2 km/h 24.8 km/h 83 % 0.0 mm
01:08 14.1 °C 11.0 °C 1016.8 hPa West 20.9 km/h 24.8 km/h 83 % 0.0 mm
01:13 14.1 °C 11.0 °C 1016.8 hPa WSW 17.2 km/h 22.4 km/h 83 % 0.0 mm
01:18 14.1 °C 11.0 °C 1016.8 hPa WSW 15.8 km/h 20.9 km/h 83 % 0.0 mm
01:23 14.1 °C 11.0 °C 1016.8 hPa WSW 14.0 km/h 23.3 km/h 83 % 0.0 mm
01:26 14.1 °C 11.0 °C 1016.8 hPa SW 17.2 km/h 23.3 km/h 83 % 0.0 mm
01:31 14.1 °C 11.0 °C 1016.8 hPa West 11.6 km/h 21.2 km/h 83 % 0.0 mm
01:33 14.0 °C 11.0 °C 1016.8 hPa West 21.2 km/h 22.7 km/h 82 % 0.0 mm
01:38 14.0 °C 11.0 °C 1016.8 hPa West 11.9 km/h 22.7 km/h 82 % 0.0 mm
01:43 14.0 °C 11.0 °C 1016.8 hPa West 20.9 km/h 27.0 km/h 82 % 0.0 mm
01:48 14.0 °C 11.0 °C 1016.8 hPa SW 20.6 km/h 31.4 km/h 82 % 0.0 mm
01:53 14.0 °C 11.0 °C 1016.8 hPa WSW 17.7 km/h 31.4 km/h 82 % 0.0 mm
01:54 14.0 °C 11.0 °C 1016.8 hPa WSW 27.4 km/h 31.4 km/h 82 % 0.0 mm
01:59 14.0 °C 11.0 °C 1016.8 hPa WSW 20.6 km/h 27.7 km/h 82 % 0.0 mm
02:04 14.0 °C 11.0 °C 1016.1 hPa West 20.6 km/h 27.7 km/h 83 % 0.0 mm
02:09 14.0 °C 11.0 °C 1016.1 hPa WSW 27.4 km/h 28.0 km/h 83 % 0.0 mm
02:15 14.0 °C 11.0 °C 1016.1 hPa WSW 15.8 km/h 28.0 km/h 83 % 0.0 mm
02:20 14.0 °C 11.0 °C 1016.1 hPa SW 19.5 km/h 24.8 km/h 83 % 0.0 mm
02:25 14.0 °C 11.0 °C 1016.1 hPa WSW 22.7 km/h 28.0 km/h 83 % 0.0 mm
02:30 14.0 °C 11.0 °C 1016.1 hPa WSW 23.3 km/h 28.0 km/h 83 % 0.0 mm
02:35 14.0 °C 12.0 °C 1016.1 hPa WSW 20.6 km/h 26.7 km/h 84 % 0.0 mm
02:40 14.0 °C 12.0 °C 1016.1 hPa West 15.8 km/h 26.2 km/h 84 % 0.0 mm
02:45 14.0 °C 12.0 °C 1015.1 hPa WSW 23.8 km/h 26.2 km/h 84 % 0.0 mm
02:46 14.0 °C 12.0 °C 1015.1 hPa WSW 23.8 km/h 26.2 km/h 84 % 0.0 mm
02:51 14.0 °C 12.0 °C 1015.1 hPa WSW 20.1 km/h 25.9 km/h 84 % 0.0 mm
02:56 14.0 °C 12.0 °C 1015.1 hPa WSW 14.0 km/h 25.9 km/h 84 % 0.0 mm
03:01 0.0 °C 12.0 °C 0.0 hPa Calm     0 % 0.0 mm
03:06 13.9 °C 12.0 °C 1015.1 hPa WSW 27.0 km/h 27.0 km/h 85 % 0.0 mm
03:11 13.9 °C 12.0 °C 1015.1 hPa South 15.8 km/h 27.0 km/h 85 % 0.0 mm
03:16 13.9 °C 12.0 °C 1015.1 hPa WSW 27.0 km/h 27.0 km/h 85 % 0.0 mm
03:22 13.9 °C 12.0 °C 1015.1 hPa WSW 23.3 km/h 30.9 km/h 85 % 0.0 mm
03:27 13.9 °C 12.0 °C 1015.1 hPa SSW 15.8 km/h 30.9 km/h 85 % 0.0 mm
03:32 13.9 °C 12.0 °C 1014.1 hPa WSW 21.2 km/h 32.3 km/h 85 % 0.0 mm
03:37 13.9 °C 12.0 °C 1014.1 hPa WSW 20.6 km/h 32.3 km/h 85 % 0.0 mm
03:42 13.9 °C 12.0 °C 1014.1 hPa WSW 20.1 km/h 22.7 km/h 85 % 0.0 mm
03:47 13.7 °C 12.0 °C 1014.1 hPa SW 13.0 km/h 22.7 km/h 87 % 0.0 mm
03:52 13.6 °C 12.0 °C 1014.1 hPa WSW 22.4 km/h 22.7 km/h 87 % 0.0 mm
03:57 13.6 °C 12.0 °C 1014.1 hPa WSW 30.6 km/h 32.3 km/h 87 % 0.0 mm
03:58 13.6 °C 12.0 °C 1014.1 hPa WSW 30.6 km/h 32.3 km/h 87 % 0.0 mm
04:03 13.7 °C 12.0 °C 1014.1 hPa SW 23.3 km/h 32.3 km/h 88 % 0.0 mm
04:08 13.7 °C 12.0 °C 1014.1 hPa WSW 24.5 km/h 28.0 km/h 88 % 0.0 mm
04:13 13.8 °C 12.0 °C 1014.1 hPa WSW 31.7 km/h 31.7 km/h 88 % 0.0 mm
04:18 13.9 °C 12.0 °C 1014.1 hPa WSW 25.9 km/h 31.7 km/h 88 % 0.0 mm
04:23 13.9 °C 12.0 °C 1014.1 hPa West 24.5 km/h 34.3 km/h 88 % 0.0 mm
04:28 13.9 °C 12.0 °C 1014.1 hPa WSW 19.5 km/h 34.3 km/h 88 % 0.0 mm
04:33 13.9 °C 12.0 °C 1013.1 hPa WSW 13.7 km/h 28.8 km/h 88 % 0.0 mm
04:38 13.9 °C 12.0 °C 1013.1 hPa WSW 20.1 km/h 25.9 km/h 88 % 0.0 mm
04:43 13.9 °C 12.0 °C 1013.1 hPa WSW 26.2 km/h 31.4 km/h 88 % 0.0 mm
04:48 13.9 °C 12.0 °C 1012.1 hPa SW 23.3 km/h 37.0 km/h 88 % 0.0 mm
04:53 13.9 °C 12.0 °C 1012.1 hPa WSW 20.9 km/h 37.0 km/h 88 % 0.0 mm
04:58 13.9 °C 12.0 °C 1012.1 hPa WSW 28.0 km/h 33.5 km/h 88 % 0.0 mm
05:03 13.9 °C 12.0 °C 1013.1 hPa WSW 31.4 km/h 31.7 km/h 88 % 0.0 mm
05:08 14.0 °C 13.0 °C 1013.1 hPa SSW 24.8 km/h 34.6 km/h 89 % 0.0 mm
05:17 14.1 °C 13.0 °C 1012.1 hPa WSW 28.5 km/h 38.5 km/h 89 % 0.0 mm
05:22 14.1 °C 13.0 °C 1012.1 hPa WSW 28.0 km/h 38.5 km/h 89 % 0.0 mm
05:24 14.1 °C 13.0 °C 1012.1 hPa WSW 25.6 km/h 37.5 km/h 89 % 0.0 mm
05:26 14.1 °C 13.0 °C 1012.1 hPa WSW 36.0 km/h 37.5 km/h 89 % 0.0 mm
05:31 14.3 °C 13.0 °C 1013.1 hPa West 26.2 km/h 37.5 km/h 90 % 0.0 mm
05:36 14.3 °C 13.0 °C 1013.1 hPa WSW 28.0 km/h 36.4 km/h 90 % 0.0 mm
05:41 14.4 °C 13.0 °C 1013.1 hPa WSW 19.8 km/h 32.0 km/h 90 % 0.0 mm
05:46 14.4 °C 13.0 °C 1012.1 hPa SW 28.0 km/h 32.0 km/h 90 % 0.0 mm
05:51 14.5 °C 13.0 °C 1012.1 hPa WSW 21.6 km/h 28.0 km/h 90 % 0.0 mm
05:56 14.5 °C 13.0 °C 1012.1 hPa West 28.5 km/h 38.1 km/h 90 % 0.0 mm
06:06 14.6 °C 13.0 °C 1013.1 hPa WSW 29.1 km/h 36.7 km/h 91 % 0.0 mm
06:11 14.7 °C 13.0 °C 1013.1 hPa West 17.7 km/h 31.7 km/h 91 % 0.0 mm
06:16 14.7 °C 13.0 °C 1013.1 hPa WSW 38.5 km/h 38.5 km/h 91 % 0.0 mm
06:21 14.7 °C 13.0 °C 1013.1 hPa WSW 28.5 km/h 38.5 km/h 91 % 0.0 mm
06:26 14.7 °C 13.0 °C 1013.1 hPa West 36.0 km/h 42.2 km/h 92 % 0.0 mm
06:36 14.8 °C 13.0 °C 1012.1 hPa WSW 39.3 km/h 39.3 km/h 92 % 0.0 mm
06:41 14.8 °C 13.0 °C 1012.1 hPa WSW 35.2 km/h 43.6 km/h 92 % 0.0 mm
06:46 14.8 °C 13.0 °C 1012.1 hPa WSW 35.6 km/h 43.6 km/h 92 % 0.0 mm
06:51 14.8 °C 13.0 °C 1012.1 hPa WSW 28.0 km/h 43.6 km/h 92 % 0.0 mm
06:57 14.8 °C 14.0 °C 1012.1 hPa SW 36.7 km/h 43.6 km/h 93 % 0.0 mm
07:02 14.8 °C 14.0 °C 1011.1 hPa West 37.8 km/h 41.0 km/h 93 % 0.0 mm
07:12 14.9 °C 14.0 °C 1011.1 hPa WSW 35.6 km/h 37.8 km/h 93 % 0.0 mm
07:17 14.9 °C 14.0 °C 1011.1 hPa WSW 31.7 km/h 37.0 km/h 93 % 0.0 mm
07:22 14.9 °C 14.0 °C 1011.1 hPa WSW 25.9 km/h 34.3 km/h 93 % 0.0 mm
07:27 14.9 °C 14.0 °C 1011.1 hPa West 29.1 km/h 49.2 km/h 93 % 0.0 mm
07:32 14.9 °C 14.0 °C 1011.1 hPa WSW 28.0 km/h 49.2 km/h 93 % 0.0 mm
07:37 14.9 °C 14.0 °C 1011.1 hPa WSW 28.5 km/h 36.0 km/h 93 % 0.0 mm
07:42 14.9 °C 14.0 °C 1011.1 hPa West 35.6 km/h 36.0 km/h 93 % 0.0 mm
07:47 14.9 °C 14.0 °C 1011.1 hPa SW 18.0 km/h 36.0 km/h 93 % 0.0 mm
07:52 14.9 °C 14.0 °C 1011.1 hPa WSW 32.3 km/h 36.0 km/h 94 % 0.0 mm
08:02 14.9 °C 14.0 °C 1011.1 hPa WSW 30.9 km/h 32.3 km/h 94 % 0.0 mm
08:07 14.9 °C 14.0 °C 1011.1 hPa WSW 19.5 km/h 31.7 km/h 94 % 0.0 mm
08:12 14.9 °C 14.0 °C 1011.1 hPa WSW 36.7 km/h 36.7 km/h 95 % 0.0 mm
08:18 14.9 °C 14.0 °C 1011.1 hPa WSW 28.5 km/h 36.7 km/h 95 % 0.0 mm
08:23 14.9 °C 14.0 °C 1011.1 hPa SW 25.3 km/h 36.7 km/h 95 % 0.0 mm
08:28 14.9 °C 15.0 °C 1011.1 hPa WSW 32.8 km/h 36.7 km/h 96 % 0.0 mm
08:33 15.0 °C 15.0 °C 1011.1 hPa WSW 33.1 km/h 37.5 km/h 96 % 0.0 mm
08:38 15.0 °C 15.0 °C 1011.1 hPa West 39.3 km/h 39.3 km/h 96 % 0.0 mm
08:43 15.1 °C 15.0 °C 1011.1 hPa WSW 32.8 km/h 39.3 km/h 96 % 0.0 mm
08:48 15.1 °C 15.0 °C 1011.1 hPa WSW 32.0 km/h 45.7 km/h 96 % 0.0 mm
08:53 15.1 °C 15.0 °C 1011.1 hPa WSW 19.8 km/h 45.7 km/h 96 % 0.0 mm
08:58 15.0 °C 15.0 °C 1011.1 hPa West 31.7 km/h 32.0 km/h 97 % 0.0 mm
09:03 15.0 °C 15.0 °C 1011.1 hPa West 31.7 km/h 31.7 km/h 97 % 0.0 mm
09:08 14.9 °C 15.0 °C 1011.1 hPa West 31.7 km/h 31.7 km/h 98 % 0.0 mm
09:13 14.9 °C 15.0 °C 1011.1 hPa West 31.7 km/h 31.7 km/h 98 % 0.0 mm
09:18 14.9 °C 15.0 °C 1011.1 hPa West 31.7 km/h 31.7 km/h 98 % 0.0 mm
09:23 14.9 °C 15.0 °C 1011.1 hPa WSW 20.9 km/h 20.9 km/h 98 % 0.0 mm
09:28 15.0 °C 15.0 °C 1011.1 hPa WSW 20.9 km/h 20.9 km/h 98 % 0.0 mm
09:33 15.0 °C 15.0 °C 1012.1 hPa WSW 20.9 km/h 20.9 km/h 98 % 0.0 mm
09:34 15.0 °C 15.0 °C 1012.1 hPa WSW 20.9 km/h 20.9 km/h 98 % 0.0 mm
09:39 15.0 °C 15.0 °C 1012.1 hPa WSW 20.9 km/h 20.9 km/h 98 % 0.0 mm
09:40 15.0 °C 15.0 °C 1012.1 hPa WSW 20.9 km/h 20.9 km/h 98 % 0.0 mm
09:45 15.0 °C 15.0 °C 1012.1 hPa West 16.9 km/h 20.9 km/h 98 % 0.0 mm
09:50 15.0 °C 15.0 °C 1012.1 hPa West 16.9 km/h 20.9 km/h 98 % 0.0 mm
09:55 15.2 °C 15.0 °C 1012.1 hPa West 16.9 km/h 16.9 km/h 98 % 0.0 mm
10:00 15.3 °C 15.0 °C 1011.1 hPa West 16.9 km/h 16.9 km/h 98 % 0.3 mm
10:05 15.4 °C 15.0 °C 1011.1 hPa West 16.9 km/h 16.9 km/h 98 % 0.3 mm
10:10 15.5 °C 16.0 °C 1011.1 hPa West 16.9 km/h 16.9 km/h 98 % 0.3 mm
10:16 15.5 °C 16.0 °C 1011.1 hPa West 16.9 km/h 16.9 km/h 98 % 0.3 mm
10:21 15.7 °C 16.0 °C 1011.1 hPa WSW 16.3 km/h 16.3 km/h 98 % 0.3 mm
10:26 15.7 °C 16.0 °C 1011.1 hPa WSW 16.3 km/h 16.3 km/h 98 % 0.3 mm
10:31 15.7 °C 16.0 °C 1012.1 hPa West 16.3 km/h 16.3 km/h 98 % 0.3 mm
10:36 15.7 °C 16.0 °C 1012.1 hPa West 15.8 km/h 16.3 km/h 98 % 0.3 mm
10:41 15.8 °C 16.0 °C 1012.1 hPa West 24.5 km/h 24.5 km/h 98 % 0.3 mm
10:46 15.9 °C 16.0 °C 1012.1 hPa West 23.0 km/h 24.5 km/h 98 % 0.3 mm
10:51 15.9 °C 16.0 °C 1012.1 hPa West 24.5 km/h 24.5 km/h 98 % 0.3 mm
10:56 16.0 °C 16.0 °C 1012.1 hPa West 12.2 km/h 24.5 km/h 98 % 0.0 mm
11:01 16.1 °C 16.0 °C 1012.1 hPa WSW 14.3 km/h 27.4 km/h 97 % 0.0 mm
11:06 16.1 °C 16.0 °C 1012.1 hPa West 24.8 km/h 27.4 km/h 97 % 0.0 mm
11:11 16.3 °C 16.0 °C 1012.1 hPa West 9.7 km/h 35.2 km/h 97 % 0.0 mm
11:16 16.3 °C 16.0 °C 1012.1 hPa West 9.7 km/h 35.2 km/h 97 % 0.0 mm
11:21 16.3 °C 16.0 °C 1012.1 hPa West 9.7 km/h 15.4 km/h 96 % 0.0 mm
11:26 16.3 °C 16.0 °C 1012.1 hPa WSW 20.9 km/h 20.9 km/h 96 % 0.0 mm
11:36 16.4 °C 16.0 °C 1013.1 hPa WSW 15.1 km/h 20.9 km/h 96 % 0.0 mm
11:41 16.3 °C 16.0 °C 1013.1 hPa WSW 15.1 km/h 15.1 km/h 95 % 0.0 mm
11:46 16.2 °C 16.0 °C 1013.1 hPa WSW 15.1 km/h 15.1 km/h 95 % 0.0 mm
11:51 16.2 °C 16.0 °C 1013.1 hPa WSW 15.1 km/h 15.1 km/h 95 % 0.5 mm
11:56 15.8 °C 15.0 °C 1013.1 hPa WSW 15.1 km/h 15.1 km/h 94 % 0.8 mm
12:01 15.8 °C 15.0 °C 1013.1 hPa WSW 15.1 km/h 15.1 km/h 94 % 0.8 mm
12:06 15.5 °C 15.0 °C 1013.1 hPa WSW 15.1 km/h 15.1 km/h 94 % 0.8 mm
12:11 15.5 °C 15.0 °C 1013.1 hPa WNW 11.9 km/h 14.0 km/h 94 % 0.8 mm
12:16 15.3 °C 14.0 °C 1013.1 hPa NW 12.2 km/h 14.0 km/h 94 % 0.8 mm
12:21 15.3 °C 14.0 °C 1013.1 hPa NW 12.2 km/h 14.0 km/h 94 % 0.8 mm
12:26 14.7 °C 14.0 °C 1013.1 hPa NW 12.2 km/h 12.2 km/h 94 % 0.8 mm
12:31 14.7 °C 14.0 °C 1014.1 hPa NW 12.2 km/h 12.2 km/h 95 % 0.8 mm
12:36 14.7 °C 14.0 °C 1014.1 hPa NW 12.2 km/h 12.2 km/h 95 % 0.8 mm
12:41 14.7 °C 14.0 °C 1014.1 hPa NW 12.2 km/h 12.2 km/h 95 % 0.8 mm
12:47 14.7 °C 14.0 °C 1014.1 hPa NW 12.2 km/h 12.2 km/h 96 % 0.8 mm
12:52 14.9 °C 15.0 °C 1014.1 hPa NNW 11.6 km/h 11.6 km/h 96 % 0.3 mm
12:57 14.9 °C 15.0 °C 1014.1 hPa NNW 11.6 km/h 11.6 km/h 96 % 0.0 mm
13:07 15.5 °C 14.0 °C 1014.1 hPa NNW 6.9 km/h 6.9 km/h 90 % 0.0 mm
13:17 15.9 °C 13.0 °C 1015.1 hPa North 6.1 km/h 6.9 km/h 83 % 0.0 mm
13:22 16.5 °C 14.0 °C 1015.1 hPa North 9.3 km/h 9.3 km/h 82 % 0.0 mm
13:27 16.5 °C 14.0 °C 1015.1 hPa North 9.3 km/h 9.3 km/h 82 % 0.0 mm
13:32 16.5 °C 14.0 °C 1015.1 hPa WNW 9.0 km/h 9.3 km/h 82 % 0.0 mm
13:37 15.7 °C 11.0 °C 1015.1 hPa WNW 9.0 km/h 9.0 km/h 72 % 0.0 mm
13:42 15.7 °C 11.0 °C 1015.1 hPa WNW 9.0 km/h 9.0 km/h 72 % 0.0 mm
13:47 16.1 °C 11.0 °C 1015.1 hPa WNW 9.0 km/h 9.0 km/h 72 % 0.0 mm
13:53 16.1 °C 11.0 °C 1015.1 hPa WNW 9.0 km/h 9.0 km/h 72 % 0.0 mm
13:58 16.4 °C 11.0 °C 1015.1 hPa North 8.7 km/h 8.7 km/h 69 % 0.0 mm
14:03 16.4 °C 11.0 °C 1015.1 hPa North 8.7 km/h 8.7 km/h 69 % 0.0 mm
14:08 16.4 °C 11.0 °C 1015.1 hPa NNW 9.7 km/h 9.7 km/h 69 % 0.0 mm
14:13 16.4 °C 11.0 °C 1015.1 hPa NNW 9.7 km/h 9.7 km/h 69 % 0.0 mm
14:18 16.4 °C 11.0 °C 1015.1 hPa North 9.0 km/h 9.0 km/h 69 % 0.0 mm
14:23 16.4 °C 10.0 °C 1015.1 hPa NNE 17.7 km/h 17.7 km/h 66 % 0.0 mm
14:28 16.4 °C 10.0 °C 1015.1 hPa WNW 5.5 km/h 17.7 km/h 66 % 0.0 mm
14:33 16.4 °C 10.0 °C 1015.1 hPa NNW 11.9 km/h 17.7 km/h 66 % 0.0 mm
14:38 16.4 °C 10.0 °C 1015.1 hPa WNW 11.9 km/h 16.9 km/h 66 % 0.0 mm
14:45 16.8 °C 10.0 °C 1015.1 hPa North 10.5 km/h 16.9 km/h 65 % 0.0 mm
14:49 16.9 °C 10.0 °C 1015.1 hPa NNE 15.4 km/h 15.8 km/h 64 % 0.0 mm
14:54 16.9 °C 10.0 °C 1015.1 hPa NNW 9.7 km/h 16.6 km/h 64 % 0.0 mm
14:59 16.9 °C 10.0 °C 1015.1 hPa WNW 15.8 km/h 16.6 km/h 64 % 0.0 mm
15:09 16.6 °C 10.0 °C 1016.1 hPa North 10.1 km/h 15.4 km/h 63 % 0.0 mm
15:14 16.6 °C 10.0 °C 1016.1 hPa North 7.6 km/h 15.4 km/h 63 % 0.0 mm
15:19 16.6 °C 10.0 °C 1016.1 hPa North 9.3 km/h 10.1 km/h 63 % 0.0 mm
15:24 16.6 °C 10.0 °C 1016.1 hPa NNW 10.1 km/h 10.1 km/h 63 % 0.0 mm
15:30 16.8 °C 10.0 °C 1016.1 hPa NW 10.1 km/h 10.1 km/h 63 % 0.0 mm
15:35 16.5 °C 9.0 °C 1016.1 hPa North 5.5 km/h 13.0 km/h 61 % 0.0 mm
15:40 16.5 °C 9.0 °C 1016.1 hPa WNW 14.0 km/h 14.0 km/h 61 % 0.0 mm
15:45 16.5 °C 9.0 °C 1016.8 hPa NNW 16.3 km/h 16.3 km/h 59 % 0.0 mm
15:50 17.1 °C 9.0 °C 1016.8 hPa North 5.0 km/h 16.3 km/h 60 % 0.0 mm
15:55 16.5 °C 9.0 °C 1016.8 hPa NNW 9.0 km/h 12.6 km/h 61 % 0.0 mm
16:00 16.7 °C 10.0 °C 1016.8 hPa NW 6.4 km/h 12.6 km/h 63 % 0.0 mm
16:05 16.7 °C 10.0 °C 1016.8 hPa NW 8.7 km/h 8.7 km/h 63 % 0.0 mm
16:10 15.5 °C 8.0 °C 1016.8 hPa NNW 10.8 km/h 10.8 km/h 60 % 0.0 mm
16:15 15.5 °C 8.0 °C 1016.8 hPa North 4.3 km/h 10.8 km/h 60 % 0.0 mm
16:20 15.5 °C 8.0 °C 1016.8 hPa North 6.4 km/h 6.9 km/h 60 % 0.0 mm
16:25 15.3 °C 9.0 °C 1016.8 hPa WNW 6.9 km/h 10.1 km/h 64 % 0.0 mm
16:30 15.3 °C 9.0 °C 1016.8 hPa WSW 5.5 km/h 12.2 km/h 64 % 0.0 mm
16:41 15.0 °C 8.0 °C 1016.8 hPa NNE 10.1 km/h 12.2 km/h 63 % 0.0 mm
16:46 15.0 °C 8.0 °C 1016.8 hPa North 1.8 km/h 12.2 km/h 63 % 0.0 mm
16:51 15.2 °C 8.0 °C 1016.8 hPa North 7.9 km/h 11.1 km/h 62 % 0.0 mm
16:56 15.4 °C 8.0 °C 1016.8 hPa NW 3.2 km/h 11.1 km/h 62 % 0.0 mm
17:01 15.4 °C 8.0 °C 1016.8 hPa NW 9.0 km/h 10.1 km/h 62 % 0.0 mm
17:11 15.8 °C 9.0 °C 1016.8 hPa NNW 6.1 km/h 12.2 km/h 64 % 0.0 mm
17:16 15.8 °C 9.0 °C 1016.8 hPa WNW 5.8 km/h 12.2 km/h 63 % 0.0 mm
17:21 15.8 °C 9.0 °C 1016.8 hPa NNW 2.1 km/h 10.5 km/h 63 % 0.0 mm
17:31 16.1 °C 9.0 °C 1016.8 hPa NNE 10.5 km/h 14.3 km/h 62 % 0.0 mm
17:36 16.1 °C 9.0 °C 1016.8 hPa NNW 5.0 km/h 10.5 km/h 62 % 0.0 mm
17:41 16.1 °C 9.0 °C 1016.8 hPa NNW 11.6 km/h 11.6 km/h 62 % 0.0 mm
17:46 16.1 °C 9.0 °C 1016.8 hPa North 4.7 km/h 11.6 km/h 62 % 0.0 mm
17:48 16.1 °C 9.0 °C 1016.8 hPa NNW 4.3 km/h 11.6 km/h 62 % 0.0 mm
17:53 16.0 °C 8.0 °C 1016.8 hPa NNE 6.4 km/h 9.7 km/h 59 % 0.0 mm
17:58 15.3 °C 8.0 °C 1016.8 hPa WNW 3.2 km/h 9.7 km/h 60 % 0.0 mm
18:03 15.3 °C 8.0 °C 1016.8 hPa NNW 4.7 km/h 9.0 km/h 60 % 0.0 mm
18:08 15.3 °C 8.0 °C 1016.8 hPa West 2.1 km/h 9.0 km/h 60 % 0.0 mm
18:13 15.3 °C 8.0 °C 1016.8 hPa NW 9.0 km/h 9.0 km/h 60 % 0.0 mm
18:18 15.3 °C 8.0 °C 1016.8 hPa Calm   9.0 km/h 60 % 0.0 mm
18:23 14.6 °C 8.0 °C 1016.8 hPa Calm   2.1 km/h 64 % 0.0 mm
18:28 14.6 °C 8.0 °C 1016.8 hPa WNW 2.6 km/h 3.5 km/h 64 % 0.0 mm
18:33 14.5 °C 9.0 °C 1018.2 hPa NW 5.5 km/h 5.5 km/h 65 % 0.0 mm
18:38 14.5 °C 9.0 °C 1018.2 hPa Calm   5.5 km/h 65 % 0.0 mm
18:43 14.5 °C 9.0 °C 1018.2 hPa Calm   5.5 km/h 65 % 0.0 mm
18:48 14.5 °C 9.0 °C 1018.2 hPa West 1.8 km/h 2.1 km/h 65 % 0.0 mm
18:53 14.5 °C 9.0 °C 1018.2 hPa Calm   4.3 km/h 65 % 0.0 mm
18:58 14.5 °C 9.0 °C 1018.2 hPa North 4.3 km/h 4.3 km/h 65 % 0.0 mm
19:03 14.5 °C 9.0 °C 1018.2 hPa Calm   4.3 km/h 65 % 0.0 mm
19:08 14.5 °C 9.0 °C 1018.2 hPa Calm     65 % 0.0 mm
19:13 14.5 °C 9.0 °C 1018.2 hPa Calm     65 % 0.0 mm
19:18 14.5 °C 9.0 °C 1018.2 hPa Calm     65 % 0.0 mm
19:28 11.9 °C 8.0 °C 1018.2 hPa Calm     74 % 0.0 mm
19:33 11.9 °C 8.0 °C 1018.2 hPa Calm     74 % 0.0 mm
19:38 11.9 °C 8.0 °C 1018.2 hPa Calm     74 % 0.0 mm
19:43 11.9 °C 8.0 °C 1018.2 hPa Calm     74 % 0.0 mm
19:48 11.9 °C 8.0 °C 1018.2 hPa Calm     74 % 0.0 mm
19:58 11.9 °C 8.0 °C 1018.2 hPa Calm   1.8 km/h 74 % 0.0 mm
20:03 11.9 °C 8.0 °C 1018.2 hPa Calm   1.8 km/h 74 % 0.0 mm
20:08 11.9 °C 8.0 °C 1018.2 hPa Calm     74 % 0.0 mm
20:13 11.9 °C 8.0 °C 1018.2 hPa Calm   4.7 km/h 74 % 0.0 mm
20:18 9.9 °C 7.0 °C 1018.8 hPa Calm   4.7 km/h 81 % 0.0 mm
20:23 9.9 °C 7.0 °C 1018.8 hPa West 4.0 km/h 5.5 km/h 81 % 0.0 mm
20:28 9.9 °C 7.0 °C 1018.8 hPa Calm   5.5 km/h 81 % 0.0 mm
20:33 9.9 °C 7.0 °C 1018.2 hPa Calm   5.5 km/h 81 % 0.0 mm
20:38 9.9 °C 7.0 °C 1018.2 hPa Calm   5.5 km/h 81 % 0.0 mm
20:44 9.8 °C 7.0 °C 1018.2 hPa Calm   6.4 km/h 84 % 0.0 mm
20:49 9.9 °C 8.0 °C 1018.2 hPa Calm   6.9 km/h 84 % 0.0 mm
20:54 10.0 °C 8.0 °C 1018.2 hPa Calm   6.9 km/h 84 % 0.0 mm
20:59 10.0 °C 8.0 °C 1018.2 hPa Calm     84 % 0.0 mm
21:04 10.0 °C 8.0 °C 1018.2 hPa Calm   6.4 km/h 85 % 0.0 mm
21:09 10.0 °C 8.0 °C 1018.2 hPa Calm   6.4 km/h 85 % 0.0 mm
21:14 10.0 °C 8.0 °C 1018.2 hPa Calm     85 % 0.0 mm
21:19 10.0 °C 8.0 °C 1018.2 hPa Calm     85 % 0.0 mm
21:22 10.0 °C 8.0 °C 1018.2 hPa Calm     85 % 0.0 mm
21:27 9.9 °C 8.0 °C 1018.2 hPa WSW 4.0 km/h 6.1 km/h 86 % 0.0 mm
21:32 9.9 °C 8.0 °C 1018.8 hPa Calm   6.1 km/h 86 % 0.0 mm
21:37 9.9 °C 8.0 °C 1018.8 hPa WSW 6.4 km/h 6.4 km/h 86 % 0.0 mm
21:42 9.9 °C 8.0 °C 1018.8 hPa WSW 6.4 km/h 8.7 km/h 86 % 0.0 mm
21:47 9.9 °C 8.0 °C 1018.8 hPa West 8.7 km/h 9.0 km/h 86 % 0.0 mm
21:52 9.9 °C 8.0 °C 1018.8 hPa WSW 5.0 km/h 10.5 km/h 86 % 0.0 mm
21:57 10.6 °C 9.0 °C 1018.8 hPa West 7.9 km/h 10.5 km/h 90 % 0.0 mm
22:02 10.8 °C 9.0 °C 1018.8 hPa West 10.1 km/h 10.1 km/h 90 % 0.0 mm
22:07 10.9 °C 9.0 °C 1018.8 hPa WSW 8.7 km/h 10.1 km/h 90 % 0.0 mm
22:12 10.9 °C 9.0 °C 1018.8 hPa West 9.0 km/h 10.1 km/h 90 % 0.0 mm
22:17 10.9 °C 9.0 °C 1018.8 hPa WSW 12.6 km/h 12.6 km/h 90 % 0.0 mm
22:22 10.9 °C 9.0 °C 1018.8 hPa West 4.7 km/h 12.6 km/h 90 % 0.0 mm
22:27 11.3 °C 9.0 °C 1018.8 hPa WNW 9.7 km/h 10.5 km/h 88 % 0.0 mm
22:32 11.3 °C 9.0 °C 1018.8 hPa West 8.7 km/h 9.7 km/h 88 % 0.0 mm
22:37 11.2 °C 9.0 °C 1018.8 hPa Calm   9.7 km/h 87 % 0.0 mm
22:42 11.2 °C 9.0 °C 1018.8 hPa Calm   8.7 km/h 87 % 0.0 mm
22:47 11.2 °C 9.0 °C 1018.8 hPa Calm     87 % 0.0 mm
22:57 10.2 °C 8.0 °C 1018.8 hPa West 4.3 km/h 4.3 km/h 86 % 0.0 mm
23:02 10.2 °C 8.0 °C 1018.8 hPa Calm   5.0 km/h 86 % 0.0 mm
23:07 9.8 °C 8.0 °C 1018.8 hPa Calm   5.0 km/h 87 % 0.0 mm
23:12 9.3 °C 8.0 °C 1018.8 hPa Calm     87 % 0.0 mm
23:17 9.3 °C 8.0 °C 1018.2 hPa Calm     87 % 0.0 mm
23:22 9.2 °C 8.0 °C 1018.2 hPa WSW 3.2 km/h 3.2 km/h 88 % 0.0 mm
23:27 9.2 °C 8.0 °C 1018.2 hPa Calm   3.2 km/h 90 % 0.0 mm
23:32 9.2 °C 8.0 °C 1018.8 hPa Calm     90 % 0.0 mm
23:37 9.2 °C 8.0 °C 1018.8 hPa West 2.1 km/h 2.1 km/h 90 % 0.0 mm
23:42 9.2 °C 8.0 °C 1018.8 hPa WNW 7.2 km/h 7.2 km/h 91 % 0.0 mm
23:47 9.3 °C 8.0 °C 1018.2 hPa WNW 2.6 km/h 12.2 km/h 92 % 0.0 mm
23:52 9.3 °C 8.0 °C 1018.2 hPa WNW 9.7 km/h 12.2 km/h 92 % 0.0 mm
23:57 9.3 °C 8.0 °C 1018.2 hPa Calm   9.7 km/h 92 % 0.0 mm
Le Gheer Warneton
Courtoisie de Weather Underground - 2.25 mb

Mise a jour : 18/12/2017 23:10:11
Généré par Cumulus 1.9.4 (1099)